FW0153 Weather Reports


Display with metric or nautical units.
time (UTC)temp
F
wind
direction
speed
MPH
gust
MPH
rain 1hr
in
rain 24hr
in
rain mn
in
humidity
%
barometer
mb
20260502205212 72 308 4.0 0.0 0.00 0.00 0.00 61 1020.5
20260502204505 73 188 0.0 0.0 0.00 0.00 0.00 58 1020.5
20260502204005 72 2 9.0 0.0 0.00 0.00 0.00 59 1020.5
20260502203505 71 33 9.0 0.0 0.00 0.00 0.00 60 1020.8
20260502203211 72 346 13.0 0.0 0.00 0.00 0.00 60 1020.8
20260502202505 73 19 4.0 0.0 0.00 0.00 0.00 58 1020.5
20260502202005 71 268 9.0 0.0 0.00 0.00 0.00 62 1020.8
20260502201505 71 359 9.0 0.0 0.00 0.00 0.00 63 1020.8
20260502201005 71 41 13.0 0.0 0.00 0.00 0.00 63 1020.8
20260502200505 71 64 4.0 0.0 0.00 0.00 0.00 62 1021.2
20260502200213 71 60 9.0 0.0 0.00 0.00 0.00 62 1020.8
20260502195505 71 4 18.0 0.0 0.00 0.00 0.00 63 1021.2
20260502195005 71 185 9.0 0.0 0.00 0.00 0.00 64 1021.2
20260502194504 71 296 13.0 0.0 0.00 0.00 0.00 64 1021.2
20260502194005 70 302 13.0 0.0 0.00 0.00 0.00 64 1021.2
20260502193505 70 200 0.0 0.0 0.00 0.00 0.00 66 1021.2
20260502193005 70 145 0.0 0.0 0.00 0.00 0.00 65 1021.5
20260502192712 69 34 4.0 0.0 0.00 0.00 0.00 66 1021.5
20260502192005 69 236 13.0 0.0 0.00 0.00 0.00 66 1021.5
20260502191505 69 302 13.0 0.0 0.00 0.00 0.00 66 1021.2
20260502191005 68 168 4.0 0.0 0.00 0.00 0.00 67 1021.5
20260502190505 68 66 4.0 0.0 0.00 0.00 0.00 68 1021.5
20260502190005 69 244 13.0 0.0 0.00 0.00 0.00 66 1021.5
20260502185505 69 20 4.0 0.0 0.00 0.00 0.00 66 1021.5
20260502185004 68 245 9.0 0.0 0.00 0.00 0.00 68 1021.5
20260502184505 68 213 9.0 0.0 0.00 0.00 0.00 68 1021.5
20260502184213 68 226 18.0 0.0 0.00 0.00 0.00 68 1021.5
20260502183505 68 306 23.0 0.0 0.00 0.00 0.00 69 1021.5
20260502183005 68 192 4.0 0.0 0.00 0.00 0.00 70 1021.8
20260502182504 68 124 9.0 0.0 0.00 0.00 0.00 69 1021.8
20260502182213 68 11 18.0 0.0 0.00 0.00 0.00 69 1021.5
20260502181505 68 202 9.0 0.0 0.00 0.00 0.00 70 1021.8
20260502181005 68 308 9.0 0.0 0.00 0.00 0.00 68 1021.8
20260502180505 68 218 9.0 0.0 0.00 0.00 0.00 70 1021.8
20260502180212 68 6 9.0 0.0 0.00 0.00 0.00 70 1021.8
20260502170505 65 302 13.0 0.0 0.00 0.00 0.00 76 1022.5
20260502164005 65 9 9.0 0.0 0.00 0.00 0.00 76 1022.5
20260502163505 65 198 13.0 0.0 0.00 0.00 0.00 75 1022.5
20260502163212 64 344 4.0 0.0 0.00 0.00 0.00 77 1022.2
20260502162505 64 283 4.0 0.0 0.00 0.00 0.00 78 1022.2
20260502162004 63 275 9.0 0.0 0.00 0.00 0.00 78 1022.2
20260502161505 63 350 13.0 0.0 0.00 0.00 0.00 79 1022.5
20260502161005 63 182 9.0 0.0 0.00 0.00 0.00 78 1022.2
20260502160713 63 139 4.0 0.0 0.00 0.00 0.00 79 1022.5
20260502152005 63 48 13.0 0.0 0.00 0.00 0.00 78 1021.8
20260502151505 62 315 9.0 0.0 0.00 0.00 0.00 79 1021.8
20260502151005 62 271 13.0 0.0 0.00 0.00 0.00 80 1021.8
20260502150712 62 278 9.0 0.0 0.00 0.00 0.00 80 1021.8
20260502150211 62 234 4.0 0.0 0.00 0.00 0.00 81 1021.8
20260502130505 62 42 0.0 0.0 0.00 0.00 0.00 84 1020.1
20260502123505 62 226 4.0 0.0 0.00 0.00 0.00 83 1019.8
20260502123005 62 67 0.0 0.0 0.00 0.00 0.00 83 1019.5
20260502122505 62 170 9.0 0.0 0.00 0.00 0.00 83 1019.5
20260502122212 62 21 9.0 0.0 0.00 0.00 0.00 83 1019.5
20260502121505 62 351 13.0 0.0 0.00 0.00 0.00 83 1019.5
20260502121005 62 247 4.0 0.0 0.00 0.00 0.00 83 1019.1
20260502120505 62 283 13.0 0.0 0.00 0.00 0.00 83 1019.5
20260502120212 62 226 9.0 0.0 0.00 0.00 0.00 83 1019.1
20260502115713 62 30 9.0 0.0 0.00 0.00 0.00 83 1018.8
20260502115004 62 291 13.0 0.0 0.00 0.00 0.00 83 1019.1
20260502114505 62 296 0.0 0.0 0.00 0.00 0.00 83 1019.1
20260502114005 62 187 4.0 0.0 0.00 0.00 0.00 83 1018.8
20260502113505 62 333 4.0 0.0 0.00 0.00 0.00 83 1018.8
20260502113005 62 328 9.0 0.0 0.00 0.00 0.00 83 1018.4
20260502112713 62 193 4.0 0.0 0.00 0.00 0.00 83 1018.4
20260502112005 62 330 9.0 0.0 0.00 0.00 0.00 83 1018.1
20260502111505 62 241 13.0 0.0 0.00 0.00 0.00 83 1018.4
20260502111005 62 28 4.0 0.0 0.00 0.00 0.00 83 1018.1
20260502110504 62 10 13.0 0.0 0.00 0.00 0.00 84 1018.1
20260502110005 62 334 9.0 0.0 0.00 0.00 0.00 84 1018.1
20260502105713 62 317 13.0 0.0 0.00 0.00 0.00 84 1017.8
20260502105005 62 29 13.0 0.0 0.00 0.00 0.00 83 1017.8
20260502104505 62 36 4.0 0.0 0.00 0.00 0.00 83 1017.8
20260502104004 62 329 13.0 0.0 0.00 0.00 0.00 84 1017.8
20260502103713 62 342 9.0 0.0 0.00 0.00 0.00 84 1017.4
20260502103212 62 15 9.0 0.0 0.00 0.00 0.00 84 1017.4
20260502102505 62 164 9.0 0.0 0.00 0.00 0.00 85 1017.8
20260502102004 62 319 9.0 0.0 0.00 0.00 0.00 85 1017.4
20260502101713 62 253 13.0 0.0 0.00 0.00 0.00 85 1017.4
20260502101005 62 204 9.0 0.0 0.00 0.00 0.00 85 1017.4
20260502100712 62 304 0.0 0.0 0.00 0.00 0.00 85 1017.4
20260502091505 63 100 4.0 0.0 0.00 0.00 0.00 85 1017.1
20260502091005 63 219 4.0 0.0 0.00 0.00 0.00 85 1017.1
20260502090505 63 207 9.0 0.0 0.00 0.00 0.00 86 1016.7
20260502071505 65 286 27.0 0.0 0.00 0.00 0.00 82 1015.4
20260502071005 65 174 9.0 0.0 0.00 0.00 0.00 82 1015.4
20260502070505 65 42 23.0 0.0 0.00 0.00 0.00 82 1015.4
20260502070212 65 338 51.0 0.0 0.00 0.00 0.00 82 1015.7
20260502065505 65 312 23.0 0.0 0.00 0.00 0.00 82 1015.7
20260502065005 65 265 23.0 0.0 0.00 0.00 0.00 82 1015.7
20260502064505 65 24 27.0 0.0 0.00 0.00 0.00 82 1016.1
20260502064005 65 228 9.0 0.0 0.00 0.00 0.00 82 1015.7
20260502063713 65 232 13.0 0.0 0.00 0.00 0.00 82 1016.1
20260502063005 65 340 13.0 0.0 0.00 0.00 0.00 82 1016.1
20260502062713 65 45 23.0 0.0 0.00 0.00 0.00 82 1016.1
20260502062005 65 331 18.0 0.0 0.00 0.00 0.00 82 1016.1
20260502061505 65 61 9.0 0.0 0.00 0.00 0.00 82 1016.1
20260502061005 65 12 18.0 0.0 0.00 0.00 0.00 82 1016.1
20260502060505 65 198 18.0 0.0 0.00 0.00 0.00 81 1015.7
20260502060005 65 345 27.0 0.0 0.00 0.00 0.00 81 1016.1
20260502055505 66 167 9.0 0.0 0.00 0.00 0.00 81 1015.7
20260502055212 66 226 23.0 0.0 0.00 0.00 0.00 80 1016.1
20260502054505 66 38 18.0 0.0 0.00 0.00 0.00 80 1016.1
20260502054212 66 272 4.0 0.0 0.00 0.00 0.00 80 1015.7
20260502053504 66 166 13.0 0.0 0.00 0.00 0.00 80 1015.7
20260502053005 66 294 23.0 0.0 0.00 0.00 0.00 80 1015.7
20260502052713 67 308 4.0 0.0 0.00 0.00 0.00 80 1015.7
20260502052005 67 61 9.0 0.0 0.00 0.00 0.00 79 1015.7
20260502051505 67 215 18.0 0.0 0.00 0.00 0.00 79 1015.7
20260502051214 67 47 18.0 0.0 0.00 0.00 0.00 79 1015.7
20260502050505 67 168 18.0 0.0 0.00 0.00 0.00 80 1015.7
20260502045505 67 244 13.0 0.0 0.00 0.00 0.00 80 1015.7
20260502045005 67 34 9.0 0.0 0.00 0.00 0.00 80 1015.4
20260502044505 67 83 4.0 0.0 0.00 0.00 0.00 79 1015.4
20260502044005 67 309 23.0 0.0 0.00 0.00 0.00 79 1015.4
20260502043505 67 358 23.0 0.0 0.00 0.00 0.00 78 1015.0
20260502043004 67 330 27.0 0.0 0.00 0.00 0.00 78 1015.0
20260502042505 67 323 13.0 0.0 0.00 0.00 0.00 78 1015.0
20260502042005 67 252 18.0 0.0 0.00 0.00 0.00 78 1015.4
20260502041505 68 97 13.0 0.0 0.00 0.00 0.00 78 1015.0
20260502041005 68 28 9.0 0.0 0.00 0.00 0.00 79 1015.4
20260502040505 68 209 13.0 0.0 0.00 0.00 0.00 79 1015.0
20260502040005 68 244 13.0 0.0 0.00 0.00 0.00 79 1015.0
20260502035504 68 235 9.0 0.0 0.00 0.00 0.00 79 1014.7
20260502035005 68 265 13.0 0.0 0.00 0.00 0.00 80 1014.4
20260502034505 68 0 13.0 0.0 0.00 0.00 0.00 80 1014.7
20260502034005 68 95 4.0 0.0 0.00 0.00 0.00 80 1014.7
20260502033712 68 336 27.0 0.0 0.00 0.00 0.00 79 1014.4
20260502033005 68 343 13.0 0.0 0.00 0.00 0.00 79 1014.7
20260502032506 68 183 13.0 0.0 0.00 0.00 0.00 78 1014.4
20260502032004 68 342 13.0 0.0 0.00 0.00 0.00 78 1014.4
20260502031505 68 29 27.0 0.0 0.00 0.00 0.00 79 1014.4
20260502031005 68 322 9.0 0.0 0.00 0.00 0.00 79 1014.0
20260502030712 68 273 13.0 0.0 0.00 0.00 0.00 79 1014.0
20260502030005 68 334 4.0 0.0 0.00 0.00 0.00 79 1013.7
20260502025505 68 192 4.0 0.0 0.00 0.00 0.00 79 1013.7
20260502025005 68 95 13.0 0.0 0.00 0.00 0.00 78 1013.3
20260502024504 68 33 4.0 0.0 0.00 0.00 0.00 79 1013.3
20260502024213 68 308 13.0 0.0 0.00 0.00 0.00 79 1013.0
20260502023712 69 224 0.0 0.0 0.00 0.00 0.00 78 1013.0
20260502023213 69 334 4.0 0.0 0.00 0.00 0.00 78 1012.7
20260502022505 68 1 9.0 0.0 0.00 0.00 0.00 79 1012.3
20260502022005 68 103 18.0 0.0 0.00 0.00 0.00 79 1012.3
20260502021505 68 219 9.0 0.0 0.00 0.00 0.00 80 1012.3
20260502021005 68 217 18.0 0.0 0.00 0.00 0.00 80 1012.3
20260502020505 68 247 18.0 0.0 0.00 0.00 0.00 80 1012.0
20260502020005 69 149 4.0 0.0 0.00 0.00 0.00 80 1011.6
20260502015711 69 216 0.0 0.0 0.00 0.00 0.00 81 1011.6
20260502015005 69 1 18.0 0.0 0.00 0.00 0.00 80 1011.6
20260502014505 69 43 23.0 0.0 0.00 0.00 0.00 80 1012.0
20260502014005 69 338 18.0 0.0 0.00 0.00 0.00 79 1011.6
20260502013505 69 167 18.0 0.0 0.00 0.00 0.00 79 1011.6
20260502013212 69 14 13.0 0.0 0.00 0.00 0.00 79 1011.6
20260502012505 69 355 18.0 0.0 0.00 0.00 0.00 80 1011.3
20260502012005 69 342 18.0 0.0 0.00 0.00 0.00 80 1011.0
20260502011713 69 43 9.0 0.0 0.00 0.00 0.00 81 1011.0
20260502011212 69 234 4.0 0.0 0.00 0.00 0.00 81 1010.6
20260502010505 69 344 13.0 0.0 0.00 0.00 0.00 82 1010.6
20260502010005 69 194 9.0 0.0 0.00 0.00 0.00 83 1010.6
20260502005711 69 271 18.0 0.0 0.00 0.00 0.00 84 1010.6
20260502005005 69 163 18.0 0.0 0.00 0.00 0.00 83 1010.3
20260502004505 69 273 4.0 0.0 0.00 0.00 0.00 83 1010.3
20260502004212 69 311 18.0 0.0 0.00 0.00 0.00 83 1010.3
20260502003713 69 204 13.0 0.0 0.00 0.00 0.00 82 1010.3
20260502003005 70 210 13.0 0.0 0.00 0.00 0.00 82 1009.9
20260502002713 70 313 9.0 0.0 0.00 0.00 0.00 82 1009.9
20260502002212 70 289 13.0 0.0 0.00 0.00 0.00 81 1009.9
20260502001504 70 255 9.0 0.0 0.00 0.00 0.00 81 1009.9
20260502001005 70 229 23.0 0.0 0.00 0.00 0.00 81 1009.6
20260502000505 70 186 13.0 0.0 0.00 0.00 0.00 81 1009.6
20260502000005 70 244 9.0 0.0 0.00 0.00 0.00 80 1009.9
20260501235505 70 206 18.0 0.0 0.00 0.00 0.00 80 1009.6
20260501235005 71 246 13.0 0.0 0.00 0.00 0.00 80 1009.3
20260501234505 71 263 13.0 0.0 0.00 0.00 0.00 81 1009.3
20260501234005 71 294 32.0 0.0 0.00 0.00 0.00 81 1009.3
20260501233504 71 253 18.0 0.0 0.00 0.00 0.00 81 1008.9
20260501233214 71 25 18.0 0.0 0.00 0.00 0.00 80 1008.9
20260501232504 71 137 13.0 0.0 0.00 0.00 0.00 79 1008.9
20260501232005 71 242 32.0 0.0 0.00 0.00 0.00 78 1008.6
20260501231505 71 253 13.0 0.0 0.00 0.00 0.00 79 1008.6
20260501231005 71 255 13.0 0.0 0.00 0.00 0.00 81 1008.2
20260501230505 72 88 9.0 0.0 0.00 0.00 0.00 81 1008.2
20260501230005 72 213 9.0 0.0 0.00 0.00 0.00 81 1008.2
20260501225712 73 320 13.0 0.0 0.00 0.00 0.00 80 1007.9
20260501225005 73 347 13.0 0.0 0.00 0.00 0.00 80 1007.9
20260501224505 74 211 9.0 0.0 0.00 0.00 0.00 79 1007.9
20260501224005 74 267 18.0 0.0 0.00 0.00 0.00 78 1007.9
20260501223505 74 62 13.0 0.0 0.00 0.00 0.00 79 1007.6
20260501223005 74 287 13.0 0.0 0.00 0.00 0.00 80 1007.6
20260501222505 74 262 13.0 0.0 0.00 0.00 0.00 80 1007.2
20260501222005 75 264 18.0 0.0 0.00 0.00 0.00 79 1007.2
20260501221505 76 256 9.0 0.0 0.00 0.00 0.00 77 1007.2
20260501221005 77 260 13.0 0.0 0.00 0.00 0.00 76 1006.9
20260501220712 77 285 13.0 0.0 0.00 0.00 0.00 76 1006.9
20260501220213 77 240 13.0 0.0 0.00 0.00 0.00 76 1006.9
20260501215504 77 291 18.0 0.0 0.00 0.00 0.00 76 1006.9
20260501215005 77 253 4.0 0.0 0.00 0.00 0.00 76 1006.9
20260501214712 77 196 18.0 0.0 0.00 0.00 0.00 76 1006.9
20260501214005 77 251 18.0 0.0 0.00 0.00 0.00 76 1006.9
20260501213712 77 156 23.0 0.0 0.00 0.00 0.00 75 1006.9
20260501213213 77 206 23.0 0.0 0.00 0.00 0.00 75 1006.9
20260501212505 77 281 27.0 0.0 0.00 0.00 0.00 74 1006.9
20260501212005 76 240 9.0 0.0 0.00 0.00 0.00 76 1007.2
20260501211505 76 237 13.0 0.0 0.00 0.00 0.00 76 1007.2
20260501211005 76 158 9.0 0.0 0.00 0.00 0.00 76 1006.9
20260501210505 76 304 13.0 0.0 0.00 0.00 0.00 77 1006.9
20260501210213 75 179 13.0 0.0 0.00 0.00 0.00 78 1007.2